CW1936 Heraklion Crete GR current weather conditions

sailwx.info

Wind from 145 at 3 knots gusting 8

Air temperature 31.7° C
Dewpoint 19.3° C

Last reported at 2020-Aug-14 10:01 UTC.
Time now 2020-Aug-14 10:53 UTC

Location: N 35°22' E 025°02'.
View on Google Maps.

See reports from other nearby stations

  
Tides and Currents Weather Stations Pressure Air Temp Water Temp Dewpoint Dewpoint Depression Visibility Wind Speed Wind Dir Waves Ship Positions
date/time (UTC)wind fromknots sea level pressurealtimeterstation pressurevisibilityair tempwater tempwave heightnotes
2020-Aug-14 10:01 145 3 gusting 8 31.7
2020-Aug-14 09:46 167 1 gusting 6 31.7
2020-Aug-14 09:31 004 2 gusting 6 31.1
2020-Aug-14 09:16 034 31.1
2020-Aug-14 09:01 088 2 gusting 9 31.1
2020-Aug-14 08:46 134 1 gusting 12 31.1
2020-Aug-14 08:31 244 31.1
2020-Aug-14 08:15 176 0 gusting 7 31.1
2020-Aug-14 08:00 031 1 gusting 10 30.6
2020-Aug-14 07:46 072 0 gusting 13 30.6
2020-Aug-14 07:32 279 1 gusting 11 30.6
2020-Aug-14 07:17 207 2 gusting 13 30.0
2020-Aug-14 07:01 293 3 gusting 11 30.0
2020-Aug-14 06:45 253 2 gusting 14 30.0
2020-Aug-14 06:30 021 1 gusting 5 30.6
2020-Aug-14 06:15 108 1 gusting 8 30.0
2020-Aug-14 06:01 176 1 gusting 10 29.4
2020-Aug-14 05:46 151 0 gusting 11 29.4
2020-Aug-14 05:30 319 2 gusting 12 29.4
2020-Aug-14 05:15 278 5 gusting 14 29.4
2020-Aug-14 05:00 253 29.4
2020-Aug-14 04:45 314 2 gusting 7 28.3
2020-Aug-14 04:30 256 2 gusting 13 27.8
2020-Aug-14 04:15 278 2 gusting 12 27.8
2020-Aug-14 04:00 355 0 gusting 5 27.2
2020-Aug-14 03:45 136 0 gusting 6 26.7
2020-Aug-14 03:30 020 26.7
2020-Aug-14 03:15 021 0 gusting 8 27.2
2020-Aug-14 03:00 254 2 gusting 11 27.2
2020-Aug-14 02:31 020 27.2
2020-Aug-14 02:16 262 2 gusting 8 27.8
2020-Aug-14 02:03 252 27.8
2020-Aug-14 01:46 254 1 gusting 11 27.8
2020-Aug-14 01:30 290 3 gusting 8 27.8
2020-Aug-14 01:16 285 0 gusting 6 27.8
2020-Aug-14 01:01 297 0 gusting 4 27.8
2020-Aug-14 00:46 285 2 gusting 6 27.8
2020-Aug-14 00:16 278 0 gusting 6 27.8
2020-Aug-14 00:01 252 0 gusting 5 27.8
2020-Aug-13 23:01 290 2 gusting 8 28.3
2020-Aug-13 22:46 043 27.8
2020-Aug-13 22:31 263 1 gusting 6 27.8
2020-Aug-13 22:16 248 0 gusting 6 28.3
2020-Aug-13 22:01 329 0 gusting 8 28.3
2020-Aug-13 21:46 274 2 gusting 11 28.3
2020-Aug-13 21:31 240 27.8
2020-Aug-13 21:16 006 0 gusting 7 27.8
2020-Aug-13 21:00 333 27.8
2020-Aug-13 20:46 007 28.3
2020-Aug-13 20:30 151 28.3
2020-Aug-13 20:15 300 2 gusting 9 28.3
2020-Aug-13 20:00 264 0 gusting 11 28.9
2020-Aug-13 19:45 245 0 gusting 6 28.3
2020-Aug-13 19:30 181 0 gusting 6 28.3
2020-Aug-13 19:15 041 2 gusting 8 28.3
2020-Aug-13 19:00 025 0 gusting 6 28.3
2020-Aug-13 18:45 252 27.8
2020-Aug-13 18:30 019 28.3
2020-Aug-13 18:15 258 0 gusting 4 28.3
2020-Aug-13 18:01 041 0 gusting 6 28.3
2020-Aug-13 17:45 005 1 gusting 4 28.9
2020-Aug-13 17:30 315 28.9
2020-Aug-13 17:15 020 1 gusting 6 28.9
2020-Aug-13 17:00 032 28.9
2020-Aug-13 16:45 257 28.9
2020-Aug-13 16:30 013 28.9
2020-Aug-13 16:15 271 29.4
2020-Aug-13 16:00 246 29.4
2020-Aug-13 15:45 331 30.6
2020-Aug-13 15:30 290 1 gusting 7 31.1
2020-Aug-13 15:15 326 31.1
2020-Aug-13 15:01 229 0 gusting 7 31.1
2020-Aug-13 14:48 263 31.1
2020-Aug-13 14:32 259 0 gusting 14 31.7
2020-Aug-13 14:03 086 2 gusting 8 31.7
2020-Aug-13 13:47 267 1 gusting 11 32.2
2020-Aug-13 13:31 011 1 gusting 9 32.8
2020-Aug-13 13:16 337 0 gusting 11 32.8
2020-Aug-13 13:01 072 1 gusting 13 32.8
2020-Aug-13 12:47 245 2 gusting 13 32.2
2020-Aug-13 12:31 261 3 gusting 9 32.2
2020-Aug-13 12:16 277 2 gusting 10 32.8
2020-Aug-13 12:00 262 3 gusting 11 32.2
2020-Aug-13 11:46 357 3 gusting 19 31.7
2020-Aug-13 11:31 119 2 gusting 11 32.2
2020-Aug-13 11:16 057 1 gusting 9 32.8
2020-Aug-13 11:01 083 1 gusting 11 32.2
2020-Aug-13 10:46 174 1 gusting 11 32.8
2020-Aug-13 10:31 005 0 gusting 10 32.8
2020-Aug-13 10:16 289 4 gusting 12 32.8
2020-Aug-13 10:00 081 32.8
2020-Aug-13 09:46 317 0 gusting 7 33.3
2020-Aug-13 09:31 148 1 gusting 7 32.8
2020-Aug-13 09:16 090 0 gusting 15 32.8
2020-Aug-13 09:01 262 3 gusting 10 32.8
2020-Aug-13 08:46 108 0 gusting 9 32.8
2020-Aug-13 08:31 342 0 gusting 11 32.2
2020-Aug-13 08:15 070 1 gusting 7 32.2
2020-Aug-13 08:01 240 3 gusting 8 32.8
2020-Aug-13 07:46 094 32.8
2020-Aug-13 07:30 259 0 gusting 8 32.8
2020-Aug-13 07:15 240 2 gusting 17 32.2
2020-Aug-13 07:00 349 2 gusting 12 32.2
2020-Aug-13 06:45 061 2 gusting 9 32.2
2020-Aug-13 06:30 023 2 gusting 10 32.2
2020-Aug-13 06:15 321 1 gusting 9 32.2
2020-Aug-13 06:00 340 32.2
2020-Aug-13 05:45 262 1 gusting 6 31.7
2020-Aug-13 05:16 314 0 gusting 12 30.6
2020-Aug-13 05:02 247 0 gusting 8 30.0
2020-Aug-13 04:47 271 1 gusting 8 29.4
2020-Aug-13 04:31 110 29.4
2020-Aug-13 04:16 068 0 gusting 6 28.9
2020-Aug-13 04:01 012 1 gusting 8 28.3
2020-Aug-13 03:46 008 27.8
2020-Aug-13 03:31 271 0 gusting 6 27.8
2020-Aug-13 03:16 255 27.8
2020-Aug-13 03:01 229 1 gusting 6 27.8
2020-Aug-13 02:46 118 27.8
2020-Aug-13 02:31 354 0 gusting 8 27.8
2020-Aug-13 02:16 337 0 gusting 7 27.8
2020-Aug-13 02:00 051 1 gusting 6 27.8
2020-Aug-13 01:45 247 3 gusting 13 28.3
2020-Aug-13 01:31 290 5 gusting 16 28.9
2020-Aug-13 01:16 232 0 gusting 7 28.9
2020-Aug-13 01:01 176 1 gusting 7 28.9
2020-Aug-13 00:30 320 3 gusting 10 28.3
2020-Aug-13 00:16 034 27.8
2020-Aug-13 00:00 069 0 gusting 5 28.3
2020-Aug-12 23:45 214 1 gusting 10 28.3
2020-Aug-12 23:31 237 3 gusting 10 28.3
2020-Aug-12 23:16 321 1 gusting 6 28.3
2020-Aug-12 23:00 255 3 gusting 11 28.3
2020-Aug-12 22:45 009 1 gusting 10 28.9
2020-Aug-12 22:30 280 0 gusting 6 28.3
2020-Aug-12 22:15 264 2 gusting 9 28.9
2020-Aug-12 22:00 230 1 gusting 9 28.9
2020-Aug-12 21:45 252 3 gusting 10 28.3
2020-Aug-12 21:30 255 2 gusting 9 28.9
2020-Aug-12 21:15 266 0 gusting 6 28.3
2020-Aug-12 21:00 113 28.3
2020-Aug-12 20:30 300 2 gusting 8 28.3
2020-Aug-12 20:15 259 28.3
2020-Aug-12 20:02 285 1 gusting 7 27.8
2020-Aug-12 19:46 252 27.8
2020-Aug-12 19:32 047 0 gusting 3 27.8
2020-Aug-12 19:16 079 28.3
2020-Aug-12 19:02 310 0 gusting 9 28.3
2020-Aug-12 18:46 263 0 gusting 6 27.8
2020-Aug-12 18:32 063 27.8
2020-Aug-12 18:18 254 28.3
2020-Aug-12 18:02 056 28.3
2020-Aug-12 17:47 116 28.3
2020-Aug-12 17:31 248 3 gusting 12 28.3
2020-Aug-12 17:17 282 2 gusting 9 28.9
2020-Aug-12 17:01 255 1 gusting 8 28.9
2020-Aug-12 16:46 269 28.9
2020-Aug-12 16:32 252 28.9
2020-Aug-12 16:16 139 29.4
2020-Aug-12 16:01 248 0 gusting 12 29.4
2020-Aug-12 15:47 264 1 gusting 8 30.0
2020-Aug-12 15:31 025 30.6
2020-Aug-12 15:16 034 1 gusting 9 31.1
2020-Aug-12 15:01 267 31.1
2020-Aug-12 14:46 264 31.1
2020-Aug-12 14:32 090 1 gusting 5 31.7
2020-Aug-12 14:15 088 0 gusting 5 31.7
2020-Aug-12 14:01 138 31.7
2020-Aug-12 13:46 347 0 gusting 8 31.7
2020-Aug-12 13:30 169 1 gusting 10 31.7
2020-Aug-12 13:16 117 2 gusting 9 32.2
2020-Aug-12 13:00 301 0 gusting 6 32.2
2020-Aug-12 12:45 182 2 gusting 12 32.2
2020-Aug-12 12:31 113 1 gusting 8 32.8
2020-Aug-12 12:15 299 0 gusting 9 32.2
2020-Aug-12 12:01 015 0 gusting 14 32.8
2020-Aug-12 11:46 352 0 gusting 7 32.2
2020-Aug-12 11:31 259 0 gusting 6 32.8
2020-Aug-12 11:16 150 2 gusting 12 32.8
2020-Aug-12 11:01 137 2 gusting 14 32.2
2020-Aug-12 10:46 065 2 gusting 11 32.2
2020-Aug-12 10:31 359 0 gusting 8 32.2